Snoqualmie Pass
Snoqualmie Pass
Latest observation 08/31 18:00 PDT
| Time (PDT) | Temp °F 3760' | Temp °F 3770' | Temp °F 3010' | RH % 3010' | Min mph 3760' | Spd mph 3760' | Gust mph 3760' | Dir ° 3760' | Pcp1 in 3010' | PcpSum in 3010' | 24Sno in 3010' | SnoHt in 3010' | Pres millibar 3010' |
|---|---|---|---|---|---|---|---|---|---|---|---|---|---|
| 08/31 18:00 | 69 | 74 | 72 | 48 | 0 | 3 | 8 | 230 | 0.00 | 0.57 | 0.0 | 0.0 | 1011 |
| 08/31 17:00 | 70 | 75 | 78 | 28 | 2 | 7 | 13 | 145 | 0.00 | 0.57 | 0.0 | 0.0 | 1012 |
| 08/31 16:00 | 69 | 73 | 78 | 27 | 4 | 9 | 14 | 139 | 0.00 | 0.57 | 0.0 | 0.0 | 1012 |
| 08/31 15:00 | 68 | 74 | 78 | 28 | 4 | 8 | 14 | 132 | 0.00 | 0.57 | 0.0 | 0.0 | 1012 |
| 08/31 14:00 | 66 | 73 | 76 | 32 | 4 | 10 | 18 | 128 | 0.00 | 0.57 | 0.0 | 0.0 | 1013 |
| 08/31 13:00 | 63 | 68 | 72 | 34 | 4 | 10 | 17 | 118 | 0.00 | 0.57 | 0.0 | 0.0 | 1014 |
| 08/31 12:00 | 57 | 64 | 67 | 46 | 7 | 11 | 17 | 101 | 0.00 | 0.57 | 0.0 | 0.0 | 1015 |
| 08/31 11:00 | 53 | 57 | 61 | 67 | 5 | 9 | 12 | 98 | 0.00 | 0.57 | 0.0 | 0.0 | 1016 |
| 08/31 10:00 | 49 | 52 | 56 | 70 | 9 | 12 | 17 | 101 | 0.00 | 0.57 | 0.0 | 0.0 | 1016 |
| 08/31 09:00 | 49 | 49 | 50 | 90 | 9 | 13 | 18 | 112 | 0.00 | 0.57 | 0.0 | 0.0 | 1017 |
| 08/31 08:00 | 47 | 48 | 45 | 98 | 11 | 14 | 18 | 98 | 0.00 | 0.57 | 0.0 | 0.0 | 1017 |
| 08/31 07:00 | 48 | 46 | 44 | 98 | 9 | 14 | 18 | 98 | 0.00 | 0.57 | 0.0 | 0.0 | 1016 |
| 08/31 06:00 | 50 | 46 | 44 | 98 | 9 | 11 | 14 | 111 | 0.00 | 0.57 | 0.0 | 0.0 | 1016 |
| 08/31 05:00 | 50 | 47 | 44 | 98 | 7 | 10 | 13 | 104 | 0.00 | 0.57 | 0.0 | 0.0 | 1017 |
| 08/31 04:00 | 50 | 49 | 44 | 97 | 4 | 7 | 9 | 92 | 0.00 | 0.57 | 0.0 | 0.0 | 1016 |
| 08/31 03:00 | 50 | 49 | 45 | 97 | 0 | 3 | 5 | 99 | 0.00 | 0.57 | 0.0 | 0.0 | 1017 |
| 08/31 02:00 | 50 | 49 | 45 | 96 | 0 | 1 | 3 | 128 | 0.00 | 0.57 | 0.0 | 0.0 | 1017 |
| 08/31 01:00 | 49 | 48 | 45 | 96 | 0 | 0 | 0 | 0 | 0.00 | 0.57 | 0.0 | 0.0 | 1018 |
| 08/31 00:00 | 49 | 49 | 46 | 95 | 0 | 0 | 2 | 225 | 0.00 | 0.57 | 0.0 | 0.0 | 1018 |
| 08/30 23:00 | 49 | 49 | 47 | 93 | 2 | 5 | 7 | 212 | 0.00 | 0.57 | 0.0 | 0.0 | 1019 |
| 08/30 22:00 | 50 | 49 | 49 | 91 | 3 | 5 | 9 | 234 | 0.00 | 0.57 | 0.0 | 0.0 | 1019 |
| 08/30 21:00 | 51 | 50 | 51 | 88 | 2 | 8 | 14 | 268 | 0.00 | 0.57 | 0.0 | 0.0 | 1019 |
| 08/30 20:00 | 51 | 52 | 54 | 80 | 4 | 8 | 13 | 261 | 0.00 | 0.57 | 0.0 | 0.0 | 1019 |
| 08/30 19:00 | 51 | 53 | 56 | 72 | 4 | 11 | 17 | 255 | 0.00 | 0.57 | 0.0 | 0.0 | 1019 |
| 08/30 18:00 | 51 | 55 | 57 | 67 | 6 | 11 | 17 | 237 | 0.00 | 0.57 | 0.0 | 0.0 | 1019 |
| 08/30 17:00 | 51 | 58 | 58 | 66 | 5 | 12 | 18 | 238 | 0.00 | 0.57 | 0.0 | 0.0 | 1020 |
| 08/30 16:00 | 51 | 60 | 57 | 64 | 4 | 11 | 17 | 241 | 0.00 | 0.57 | 0.0 | 0.0 | 1020 |
| 08/30 15:00 | 50 | 56 | 60 | 55 | 5 | 10 | 15 | 240 | 0.00 | 0.57 | 0.0 | 0.0 | 1020 |
| 08/30 14:00 | 49 | 55 | 59 | 60 | 3 | 11 | 19 | 240 | 0.00 | 0.57 | 0.0 | 0.0 | 1020 |
| 08/30 13:00 | 47 | 53 | 57 | 63 | 6 | 10 | 16 | 240 | 0.00 | 0.57 | 0.0 | 0.0 | 1020 |
| 08/30 12:00 | 46 | 51 | 54 | 77 | 6 | 12 | 17 | 230 | 0.00 | 0.57 | 0.0 | 0.0 | 1020 |
| 08/30 11:00 | 44 | 52 | 52 | 87 | 6 | 12 | 17 | 224 | 0.00 | 0.57 | 0.0 | 0.0 | 1020 |
| 08/30 10:00 | 43 | 47 | 50 | 89 | 0 | 8 | 14 | 224 | 0.00 | 0.57 | 0.0 | 0.0 | 1020 |
| 08/30 09:00 | 43 | 46 | 48 | 94 | 5 | 9 | 13 | 231 | 0.00 | 0.57 | 0.0 | 0.0 | 1020 |
| 08/30 08:00 | 43 | 45 | 47 | 98 | 4 | 8 | 13 | 244 | 0.00 | 0.57 | 0.0 | 0.0 | 1020 |
| 08/30 07:00 | 43 | 44 | 47 | 98 | 7 | 12 | 16 | 239 | 0.01 | 0.57 | 0.0 | 0.0 | 1020 |
| 08/30 06:00 | 43 | 44 | 46 | 98 | 7 | 13 | 20 | 223 | 0.00 | 0.56 | 0.0 | 0.0 | 1020 |
| 08/30 05:00 | 43 | 44 | 47 | 98 | 4 | 11 | 19 | 228 | 0.00 | 0.56 | 0.0 | 0.0 | 1020 |
| 08/30 04:00 | 44 | 44 | 47 | 98 | 11 | 17 | 24 | 227 | 0.00 | 0.56 | 0.0 | 0.0 | 1020 |
| 08/30 03:00 | 44 | 45 | 47 | 98 | 9 | 15 | 20 | 230 | 0.00 | 0.56 | 0.0 | 0.0 | 1020 |
| 08/30 02:00 | 44 | 45 | 48 | 98 | 11 | 16 | 22 | 230 | 0.00 | 0.56 | 0.0 | 0.0 | 1020 |
| 08/30 01:00 | 44 | 45 | 48 | 98 | 8 | 14 | 22 | 239 | 0.00 | 0.56 | 0.0 | 0.0 | 1020 |
| 08/30 00:00 | 45 | 45 | 48 | 98 | 8 | 13 | 18 | 241 | 0.00 | 0.56 | 0.0 | 0.0 | 1020 |
| 08/29 23:00 | 45 | 46 | 49 | 98 | 6 | 11 | 18 | 248 | 0.01 | 0.56 | 0.0 | 0.0 | 1020 |
| 08/29 22:00 | 46 | 46 | 49 | 98 | 4 | 10 | 15 | 257 | 0.01 | 0.55 | 0.0 | 0.0 | 1020 |
| 08/29 21:00 | 47 | 46 | 49 | 97 | 3 | 8 | 15 | 258 | 0.05 | 0.54 | 0.0 | 0.0 | 1020 |
| 08/29 20:00 | 47 | 47 | 49 | 97 | 0 | 6 | 13 | 266 | 0.09 | 0.49 | 0.0 | 0.0 | 1019 |
| 08/29 19:00 | 48 | 48 | 50 | 96 | 6 | 14 | 23 | 280 | 0.00 | 0.40 | 0.0 | 0.0 | 1019 |
| 08/29 18:00 | 47 | 49 | 51 | 95 | 8 | 15 | 24 | 282 | 0.00 | 0.40 | 0.0 | 0.0 | 1019 |
| 08/29 17:00 | 46 | 53 | 53 | 90 | 4 | 8 | 14 | 245 | 0.00 | 0.40 | 0.0 | 0.0 | 1019 |
| 08/29 16:00 | 45 | 47 | 50 | 93 | 7 | 12 | 24 | 244 | 0.00 | 0.40 | 0.0 | 0.0 | 1019 |
| 08/29 15:00 | 45 | 49 | 51 | 94 | 4 | 13 | 24 | 256 | 0.00 | 0.40 | 0.0 | 0.0 | 1019 |
| 08/29 14:00 | 44 | 47 | 51 | 92 | 6 | 12 | 18 | 233 | 0.06 | 0.40 | 0.0 | 0.0 | 1019 |
| 08/29 13:00 | 44 | 48 | 49 | 94 | 3 | 10 | 20 | 216 | 0.02 | 0.34 | 0.0 | 0.0 | 1018 |
| 08/29 12:00 | 43 | 46 | 49 | 94 | 4 | 9 | 17 | 219 | 0.03 | 0.32 | 0.0 | 0.0 | 1018 |
| 08/29 11:00 | 42 | 44 | 49 | 94 | 6 | 10 | 20 | 238 | 0.00 | 0.29 | 0.0 | 0.0 | 1017 |
| 08/29 10:00 | 42 | 42 | 46 | 97 | 6 | 20 | 32 | 268 | 0.22 | 0.29 | 0.0 | 0.0 | 1017 |
| 08/29 09:00 | 43 | 44 | 47 | 87 | 5 | 15 | 41 | 224 | 0.07 | 0.07 | 0.0 | 0.0 | 1017 |
| 08/29 08:00 | 44 | 45 | 49 | 91 | 5 | 9 | 15 | 248 | 0.00 | 0.00 | 0.0 | 0.0 | 1016 |
| 08/29 07:00 | 44 | 45 | 48 | 91 | 6 | 12 | 19 | 228 | 0.00 | 0.00 | 0.0 | 0.0 | 1016 |
| 08/29 06:00 | 44 | 45 | 48 | 89 | 9 | 17 | 25 | 222 | 0.00 | 0.00 | 0.0 | 0.0 | 1016 |
| 08/29 05:00 | 45 | 46 | 48 | 90 | 14 | 20 | 28 | 220 | 0.00 | 0.00 | 0.0 | 0.0 | 1016 |
| 08/29 04:00 | 45 | 47 | 49 | 88 | 11 | 18 | 25 | 224 | 0.00 | 0.00 | 0.0 | 0.0 | 1016 |
| 08/29 03:00 | 46 | 48 | 50 | 92 | 6 | 13 | 22 | 223 | 0.00 | 0.00 | 0.0 | 0.0 | 1016 |
| 08/29 02:00 | 47 | 49 | 51 | 88 | 8 | 20 | 30 | 223 | 0.00 | 0.00 | 0.0 | 0.0 | 1016 |
| 08/29 01:00 | 47 | 49 | 51 | 93 | 7 | 17 | 26 | 222 | 0.00 | 0.00 | 0.0 | 0.0 | 1016 |
| 08/29 00:00 | 48 | 51 | 53 | 86 | 6 | 9 | 12 | 226 | 0.00 | 0.00 | 0.0 | 0.0 | 1016 |
| 08/28 23:00 | 49 | 51 | 52 | 80 | 0 | 6 | 13 | 228 | 0.00 | 0.00 | 0.0 | 0.0 | 1017 |
| 08/28 22:00 | 51 | 50 | 52 | 79 | 7 | 12 | 18 | 232 | 0.00 | 0.00 | 0.0 | 0.0 | 1017 |
| 08/28 21:00 | 52 | 52 | 55 | 70 | 5 | 11 | 17 | 276 | 0.00 | 0.00 | 0.0 | 0.0 | 1017 |
| 08/28 20:00 | 53 | 53 | 57 | 66 | 6 | 13 | 23 | 239 | 0.00 | 0.00 | 0.0 | 0.0 | 1017 |
| 08/28 19:00 | 54 | 55 | 58 | 65 | 11 | 21 | 31 | 225 | 0.00 | 0.00 | 0.0 | 0.0 | 1017 |
| 08/28 18:00 | 54 | 61 | 59 | 62 | 14 | 25 | 34 | 223 | 0.00 | 0.00 | 0.0 | 0.0 | 1017 |
| 08/28 17:00 | 55 | 63 | 61 | 57 | 19 | 26 | 34 | 226 | 0.00 | 0.00 | 0.0 | 0.0 | 1017 |
| 08/28 16:00 | 56 | 65 | 64 | 53 | 19 | 26 | 31 | 224 | 0.00 | 0.00 | 0.0 | 0.0 | 1017 |
| 08/28 15:00 | 56 | 64 | 64 | 52 | 15 | 23 | 31 | 221 | 0.00 | 0.00 | 0.0 | 0.0 | 1017 |
| 08/28 14:00 | 54 | 59 | 64 | 54 | 16 | 22 | 28 | 218 | 0.00 | 0.00 | 0.0 | 0.0 | 1018 |
| 08/28 13:00 | 53 | 60 | 63 | 57 | 11 | 20 | 27 | 221 | 0.00 | 0.00 | 0.0 | 0.0 | 1018 |
| 08/28 12:00 | 51 | 60 | 61 | 59 | 5 | 11 | 18 | 212 | 0.00 | 0.00 | 0.0 | 0.0 | 1018 |
| 08/28 11:00 | 49 | 56 | 59 | 65 | 6 | 9 | 14 | 226 | 0.00 | 0.00 | 0.0 | 0.0 | 1018 |
| 08/28 10:00 | 48 | 53 | 55 | 80 | 2 | 7 | 10 | 220 | 0.00 | 0.00 | 0.0 | 0.0 | 1019 |
| 08/28 09:00 | 47 | 50 | 54 | 87 | 2 | 7 | 10 | 219 | 0.00 | 0.00 | 0.0 | 0.0 | 1019 |
| 08/28 08:00 | 47 | 49 | 52 | 90 | 3 | 8 | 12 | 232 | 0.00 | 0.00 | 0.0 | 0.0 | 1019 |
| 08/28 07:00 | 47 | 48 | 52 | 93 | 4 | 9 | 14 | 226 | 0.00 | 0.00 | 0.0 | 0.0 | 1019 |
| 08/28 06:00 | 47 | 47 | 51 | 91 | 7 | 12 | 14 | 223 | 0.00 | 0.00 | 0.0 | 0.0 | 1019 |
| 08/28 05:00 | 47 | 48 | 51 | 93 | 6 | 9 | 12 | 219 | 0.00 | 0.00 | 0.0 | 0.0 | 1019 |
| 08/28 04:00 | 48 | 48 | 50 | 95 | 5 | 9 | 12 | 216 | 0.00 | 0.00 | 0.0 | 0.0 | 1019 |
| 08/28 03:00 | 48 | 49 | 50 | 93 | 2 | 6 | 12 | 225 | 0.00 | 0.00 | 0.0 | 0.0 | 1019 |
| 08/28 02:00 | 49 | 50 | 52 | 91 | 1 | 7 | 11 | 227 | 0.00 | 0.00 | 0.0 | 0.0 | 1019 |
| 08/28 01:00 | 50 | 50 | 53 | 86 | 4 | 9 | 14 | 224 | 0.00 | 0.00 | 0.0 | 0.0 | 1020 |
| 08/28 00:00 | 51 | 51 | 54 | 83 | 7 | 10 | 14 | 234 | 0.00 | 0.00 | 0.0 | 0.0 | 1020 |
| 08/27 23:00 | 52 | 52 | 55 | 83 | 8 | 12 | 19 | 257 | 0.00 | 0.00 | 0.0 | 0.0 | 1019 |
| 08/27 22:00 | 53 | 52 | 56 | 77 | 8 | 12 | 17 | 259 | 0.00 | 0.00 | 0.0 | 0.0 | 1019 |
| 08/27 21:00 | 54 | 53 | 56 | 73 | 8 | 15 | 23 | 287 | 0.00 | 0.00 | 0.0 | 0.0 | 1019 |
| 08/27 20:00 | 55 | 54 | 59 | 65 | 5 | 13 | 25 | 273 | 0.00 | 0.00 | 0.0 | 0.0 | 1019 |
| 08/27 19:00 | 55 | 56 | 60 | 62 | 5 | 11 | 18 | 245 | 0.00 | 0.00 | 0.0 | 0.0 | 1019 |
| 08/27 18:00 | 56 | 59 | 61 | 57 | 2 | 8 | 18 | 235 | 0.00 | 0.00 | 0.0 | 0.0 | 1019 |
| 08/27 17:00 | 55 | 58 | 61 | 58 | 0 | 5 | 12 | 239 | 0.00 | 0.00 | 0.0 | 0.0 | 1019 |
| 08/27 16:00 | 55 | 58 | 60 | 62 | 2 | 8 | 15 | 234 | 0.00 | 0.00 | 0.0 | 0.0 | 1020 |
| 08/27 15:00 | 56 | 57 | 61 | 60 | 0 | 8 | 18 | 258 | 0.00 | 0.00 | 0.0 | 0.0 | 1019 |
| 08/27 14:00 | 55 | 58 | 62 | 59 | 4 | 14 | 24 | 257 | 0.00 | 0.00 | 0.0 | 0.0 | 1019 |
| 08/27 13:00 | 56 | 60 | 62 | 52 | 1 | 13 | 24 | 217 | 0.00 | 0.00 | 0.0 | 0.0 | 1019 |
| 08/27 12:00 | 55 | 61 | 64 | 47 | 11 | 19 | 34 | 224 | 0.00 | 0.00 | 0.0 | 0.0 | 1019 |
| 08/27 11:00 | 53 | 57 | 63 | 49 | 1 | 8 | 19 | 234 | 0.00 | 0.00 | 0.0 | 0.0 | 1019 |
| 08/27 10:00 | 51 | 56 | 59 | 71 | 6 | 10 | 15 | 231 | 0.00 | 0.00 | 0.0 | 0.0 | 1019 |
| 08/27 09:00 | 51 | 54 | 56 | 83 | 2 | 9 | 17 | 232 | 0.00 | 0.00 | 0.0 | 0.0 | 1018 |
| 08/27 08:00 | 50 | 55 | 55 | 84 | 0 | 6 | 12 | 223 | 0.00 | 0.00 | 0.0 | 0.0 | 1018 |
| 08/27 07:00 | 50 | 53 | 53 | 88 | 5 | 8 | 11 | 223 | 0.00 | 0.00 | 0.0 | 0.0 | 1018 |
| 08/27 06:00 | 53 | 54 | 53 | 87 | 5 | 10 | 16 | 234 | 0.00 | 0.00 | 0.0 | 0.0 | 1018 |
| 08/27 05:00 | 51 | 53 | 54 | 86 | 6 | 11 | 15 | 210 | 0.00 | 0.00 | 0.0 | 0.0 | 1018 |
| 08/27 04:00 | 55 | 56 | 53 | 90 | 3 | 8 | 18 | 242 | 0.00 | 0.00 | 0.0 | 0.0 | 1018 |
| 08/27 03:00 | 54 | 56 | 54 | 87 | 2 | 7 | 12 | 231 | 0.00 | 0.00 | 0.0 | 0.0 | 1017 |
| 08/27 02:00 | 55 | 56 | 53 | 87 | 1 | 6 | 12 | 225 | 0.00 | 0.00 | 0.0 | 0.0 | 1018 |
| 08/27 01:00 | 54 | 55 | 54 | 84 | 1 | 6 | 10 | 211 | 0.00 | 0.00 | 0.0 | 0.0 | 1018 |
| 08/27 00:00 | 55 | 56 | 55 | 79 | 2 | 7 | 14 | 216 | 0.00 | 0.00 | 0.0 | 0.0 | 1018 |
| 08/26 23:00 | 56 | 57 | 56 | 77 | 6 | 10 | 17 | 220 | 0.00 | 0.00 | 0.0 | 0.0 | 1018 |
| 08/26 22:00 | 57 | 58 | 58 | 73 | 0 | 8 | 16 | 219 | 0.00 | 0.00 | 0.0 | 0.0 | 1018 |
| 08/26 21:00 | 59 | 60 | 60 | 68 | 0 | 8 | 14 | 217 | 0.00 | 0.00 | 0.0 | 0.0 | 1018 |
| 08/26 20:00 | 62 | 63 | 64 | 59 | 6 | 11 | 18 | 222 | 0.00 | 0.00 | 0.0 | 0.0 | 1018 |
| 08/26 19:00 | 65 | 69 | 68 | 50 | 8 | 14 | 19 | 236 | 0.00 | 0.00 | 0.0 | 0.0 | 1017 |
| 08/26 18:00 | 66 | 70 | 72 | 36 | 9 | 17 | 27 | 253 | 0.00 | 0.00 | 0.0 | 0.0 | 1017 |
| 08/26 17:00 | 67 | 73 | 75 | 27 | 2 | 14 | 23 | 234 | 0.00 | 0.00 | 0.0 | 0.0 | 1017 |
| 08/26 16:00 | 66 | 73 | 75 | 27 | 6 | 15 | 24 | 229 | 0.00 | 0.00 | 0.0 | 0.0 | 1017 |
| 08/26 15:00 | 66 | 69 | 76 | 28 | 6 | 16 | 26 | 230 | 0.00 | 0.00 | 0.0 | 0.0 | 1018 |
| 08/26 14:00 | 65 | 73 | 76 | 32 | 9 | 19 | 28 | 227 | 0.00 | 0.00 | 0.0 | 0.0 | 1018 |
| 08/26 13:00 | 61 | 72 | 72 | 49 | 7 | 15 | 25 | 235 | 0.00 | 0.00 | 0.0 | 0.0 | 1018 |
| 08/26 12:00 | 59 | 68 | 68 | 59 | 10 | 13 | 18 | 226 | 0.00 | 0.00 | 0.0 | 0.0 | 1018 |
| 08/26 11:00 | 58 | 67 | 67 | 65 | 7 | 9 | 14 | 217 | 0.00 | 0.00 | 0.0 | 0.0 | 1018 |
| 08/26 10:00 | 59 | 66 | 66 | 67 | 5 | 8 | 10 | 206 | 0.00 | 0.00 | 0.0 | 0.0 | 1018 |
| 08/26 09:00 | 60 | 64 | 61 | 76 | 4 | 7 | 10 | 209 | 0.00 | 0.00 | 0.0 | 0.0 | 1018 |
| 08/26 08:00 | 60 | 62 | 54 | 93 | 0 | 2 | 5 | 170 | 0.00 | 0.00 | 0.0 | 0.0 | 1019 |
| 08/26 07:00 | 60 | 60 | 52 | 92 | 0 | 2 | 5 | 223 | 0.00 | 0.00 | 0.0 | 0.0 | 1019 |
| 08/26 06:00 | 59 | 60 | 53 | 92 | 0 | 7 | 13 | 267 | 0.00 | 0.00 | 0.0 | 0.0 | 1019 |
| 08/26 05:00 | 58 | 61 | 55 | 94 | 0 | 10 | 16 | 224 | 0.00 | 0.00 | 0.0 | 0.0 | 1019 |
| 08/26 04:00 | 56 | 60 | 55 | 94 | 2 | 7 | 12 | 215 | 0.00 | 0.00 | 0.0 | 0.0 | 1019 |
| 08/26 03:00 | 58 | 62 | 56 | 93 | 7 | 9 | 12 | 218 | 0.00 | 0.00 | 0.0 | 0.0 | 1019 |
| 08/26 02:00 | 59 | 61 | 57 | 91 | 1 | 6 | 9 | 236 | 0.00 | 0.00 | 0.0 | 0.0 | 1019 |
| 08/26 01:00 | 60 | 64 | 58 | 86 | 0 | 5 | 11 | 0 | 0.00 | 0.00 | 0.0 | 0.0 | 1019 |
| 08/26 00:00 | 59 | 63 | 60 | 82 | 6 | 9 | 12 | 226 | 0.00 | 0.00 | 0.0 | 0.0 | 1019 |
| 08/25 23:00 | 61 | 64 | 61 | 79 | 6 | 9 | 12 | 225 | 0.00 | 0.00 | 0.0 | 0.0 | 1019 |
| 08/25 22:00 | 63 | 65 | 64 | 70 | 8 | 12 | 15 | 215 | 0.00 | 0.00 | 0.0 | 0.0 | 1019 |
| 08/25 21:00 | 66 | 66 | 65 | 67 | 4 | 8 | 16 | 221 | 0.00 | 0.00 | 0.0 | 0.0 | 1019 |
| 08/25 20:00 | 68 | 68 | 69 | 60 | 8 | 12 | 18 | 228 | 0.00 | 0.00 | 0.0 | 0.0 | 1019 |
| 08/25 19:00 | 71 | 75 | 74 | 49 | 11 | 16 | 22 | 224 | 0.00 | 0.00 | 0.0 | 0.0 | 1018 |
| 08/25 18:00 | 73 | 78 | 78 | 41 | 14 | 19 | 29 | 221 | 0.00 | 0.00 | 0.0 | 0.0 | 1018 |
| 08/25 17:00 | 72 | 79 | – | – | 18 | 24 | 30 | 220 | – | – | – | – | – |
| 08/25 16:00 | 73 | 82 | 77 | 42 | 6 | 16 | 24 | 195 | 0.00 | 0.00 | 0.0 | 0.0 | 1017 |
| 08/25 15:00 | 79 | 83 | 88 | 19 | 0 | 6 | 15 | 140 | 0.00 | 0.00 | 0.0 | 0.0 | 1017 |
| 08/25 14:00 | 78 | 82 | 86 | 21 | 2 | 7 | 17 | 124 | 0.00 | 0.00 | 0.0 | 0.0 | 1017 |
| 08/25 13:00 | 74 | 81 | 84 | 24 | 1 | 7 | 13 | 117 | 0.00 | 0.00 | 0.0 | 0.0 | 1017 |
| 08/25 12:00 | 72 | 75 | 79 | 30 | 3 | 7 | 12 | 128 | 0.00 | 0.00 | 0.0 | 0.0 | 1018 |
| 08/25 11:00 | 70 | 72 | 75 | 35 | 2 | 8 | 13 | 133 | 0.00 | 0.00 | 0.0 | 0.0 | 1019 |
| 08/25 10:00 | 68 | 68 | 69 | 43 | 7 | 10 | 13 | 123 | 0.00 | 0.00 | 0.0 | 0.0 | 1019 |
| 08/25 09:00 | 67 | 66 | 62 | 57 | 8 | 11 | 14 | 116 | 0.00 | 0.00 | 0.0 | 0.0 | 1020 |
| 08/25 08:00 | 65 | 64 | 55 | 74 | 9 | 11 | 13 | 111 | 0.00 | 0.00 | 0.0 | 0.0 | 1020 |
| 08/25 07:00 | 65 | 62 | 52 | 76 | 8 | 10 | 13 | 110 | 0.00 | 0.00 | 0.0 | 0.0 | 1020 |
| 08/25 06:00 | 65 | 63 | 52 | 75 | 7 | 10 | 13 | 109 | 0.00 | 0.00 | 0.0 | 0.0 | 1019 |
| 08/25 05:00 | 67 | 63 | 53 | 72 | 5 | 8 | 13 | 114 | 0.00 | 0.00 | 0.0 | 0.0 | 1019 |
| 08/25 04:00 | 67 | 63 | 54 | 71 | 7 | 10 | 13 | 119 | 0.00 | 0.00 | 0.0 | 0.0 | 1019 |
| 08/25 03:00 | 67 | 63 | 55 | 71 | 8 | 10 | 14 | 109 | 0.00 | 0.00 | 0.0 | 0.0 | 1019 |
| 08/25 02:00 | 67 | 64 | 55 | 64 | 8 | 12 | 15 | 108 | 0.00 | 0.00 | 0.0 | 0.0 | 1019 |
| 08/25 01:00 | 67 | 65 | 57 | 63 | 6 | 11 | 16 | 109 | 0.00 | 0.00 | 0.0 | 0.0 | 1019 |
| 08/25 00:00 | 68 | 67 | 57 | 61 | 6 | 9 | 11 | 96 | 0.00 | 0.00 | 0.0 | 0.0 | 1019 |
| 08/24 23:00 | 69 | 68 | 59 | 59 | 7 | 10 | 14 | 104 | 0.00 | 0.00 | 0.0 | 0.0 | 1019 |
| 08/24 22:00 | 69 | 68 | 61 | 59 | 7 | 10 | 14 | 103 | 0.00 | 0.00 | 0.0 | 0.0 | 1019 |
| 08/24 21:00 | 70 | 69 | 64 | 54 | 7 | 13 | 18 | 118 | 0.00 | 0.00 | 0.0 | 0.0 | 1019 |
| 08/24 20:00 | 72 | 70 | 72 | 43 | 3 | 12 | 21 | 130 | 0.00 | 0.00 | 0.0 | 0.0 | 1018 |
| 08/24 19:00 | 74 | 73 | 78 | 30 | 3 | 8 | 14 | 147 | 0.00 | 0.00 | 0.0 | 0.0 | 1017 |

